Location: Clarks Summit,Pa.
(41.5000°N, 75.6000°W)
Time: 00:40:58
(UTC-04:00)

OTV 5 (USA 277) - Visible Passes

Search period start: 26 June 2019 00:00
Search period end: 06 July 2019 00:00
Orbit: 301 x 333 km, 54.5° (Epoch: 26 June)

Date Brightness Start Highest point End Pass type
(mag) Time Alt. Az. Time Alt. Az. Time Alt. Az.
26 Jun ? 02:48:36 10° NW 02:51:01 42° NNE 02:51:01 42° NNE visible
27 Jun ? 01:29:28 10° NNW 01:31:17 15° NNE 01:31:50 15° NE visible
28 Jun ? 01:43:32 10° NNW 01:44:27 17° NNW 01:44:27 17° NNW visible
28 Jun ? 21:14:10 10° NW 21:14:58 11° NNW 21:15:46 10° N visible
29 Jun ? 00:24:41 10° N 00:25:56 12° NNE 00:26:41 11° NE visible
30 Jun ? 00:38:33 10° NNW 00:39:55 18° N 00:39:55 18° N visible
01 Jul ? 00:52:45 10° NW 00:53:18 14° NW 00:53:18 14° NW visible
01 Jul ? 23:33:37 10° NNW 23:35:26 16° NNE 23:35:55 15° NE visible
02 Jul ? 23:47:41 10° NNW 23:49:27 25° N 23:49:27 25° N visible
03 Jul ? 22:28:50 10° N 22:30:05 12° NNE 22:31:20 10° NE visible
04 Jul ? 00:02:02 10° NW 00:03:03 20° NW 00:03:03 20° NW visible
04 Jul ? 22:42:42 10° NNW 22:44:56 21° NNE 22:45:50 18° ENE visible
05 Jul ? 22:56:55 10° NW 22:59:32 44° NNE 22:59:32 44° NNE visible
